Flag for Venezuela Weather past 2 weeks in Valencia, Venezuela

Now
93 °F

Scattered clouds.


Feels Like: 95 °F
Forecast: 66 / 86 °F
Wind: 3 mph from Southeast

Location: Valencia Airport

Current Time: Dec 20, 2014 at 3:20:55 PM

Latest Report: Dec 20, 2014 at 2:30 PM


Visibility: N/A

Pressure: 29.92 "Hg

Humidity: 39%

Dew point: 64 °F

Location of ValenciaLocation

Historic Weather in Valencia — Graph

°F

Valencia temperature yesterday

Maximum temperature yesterday: 90 °F (at 1:30 PM)
Minimum temperature yesterday: 73 °F (at 6:30 AM)
Average temperature yesterday: 82 °F

Past Weeks' High & Low Weather Summary

 TemperatureHumidityPressure
High93 °F (Dec 7, 1:30 PM)94% (Dec 9, 6:30 AM)30.04 "Hg (Dec 9, 6:30 AM)
Low72 °F (Dec 12, 6:30 AM)37% (Dec 12, 8:30 AM)29.80 "Hg (Dec 6, 3:30 PM)
Average83 °F67%29.93 "Hg
* Reported Dec 5 3:30 PM — Dec 20 2:30 PM, Valencia, Weather by CustomWeather, © 2014

Note: Actual official high and low records may vary slightly from our data, if they occured in-between our weather recording intervals... More about our weather records

Advertising

Valencia weather history for previous 24 hours

 ConditionsComfort  
Time TempWeatherWind HumidityBarometerVisibility
2:30 PM
Dec 20
93 °FScattered clouds.3 mph39%29.92 "HgN/A
1:30 PM91 °FScattered clouds.N/A44%29.95 "HgN/A
12:30 PM90 °FScattered clouds.6 mph46%29.95 "HgN/A
11:30 AM86 °FPassing clouds.5 mph59%29.98 "HgN/A
10:30 AM84 °FSunny.7 mph62%30.01 "Hg10 mi
9:30 AM82 °FSunny.7 mph66%30.01 "Hg10 mi
8:30 AM81 °FPassing clouds.6 mph66%29.98 "HgN/A
7:30 AM77 °FPassing clouds.3 mph74%29.98 "HgN/A
6:30 AM73 °FPassing clouds.2 mph78%29.95 "HgN/A
5:30 AM75 °FPassing clouds.3 mph78%29.92 "HgN/A
4:30 AM75 °FPassing clouds.3 mph78%29.92 "HgN/A
1:30 AM79 °FClear.3 mph70%29.95 "Hg10 mi
10:30 PM
Dec 19
79 °FClear.6 mph65%29.95 "Hg10 mi
8:30 PM79 °FPassing clouds.6 mph70%29.92 "HgN/A
7:30 PM79 °FPassing clouds.7 mph70%29.92 "HgN/A
6:30 PM81 °FPassing clouds.7 mph70%29.89 "HgN/A
5:30 PM84 °FPassing clouds.7 mph66%29.89 "HgN/A
3:30 PM90 °FPassing clouds.7 mph52%29.86 "HgN/A
Weather by CustomWeather, © 2014

See weather overviewHow to use our weather pages